Time,TemperatureF,DewpointF,PressureIn,WindDirection,WindDirectionDegrees,WindSpeedMPH,WindSpeedGustMPH,Humidity,HourlyPrecipIn,Conditions,Clouds,dailyrainin,SoftwareType,DateUTC
2013-08-18 00:01:00,64.2,58.3,30.00,SW,215,0.0,0.0,81,0.00,,SCT050,0.00,VWS V14.01,2013-08-18 07:01:00,
2013-08-18 00:03:00,64.2,58.6,30.00,SW,215,0.0,0.0,82,0.00,,SCT050,0.00,VWS V14.01,2013-08-18 07:03:00,
2013-08-18 00:05:00,64.0,58.4,30.00,SW,215,0.0,0.0,82,0.00,,SCT050,0.00,VWS V14.01,2013-08-18 07:05:00,
2013-08-18 00:07:00,64.0,58.4,30.00,SW,215,0.0,0.0,82,0.00,,SCT050,0.00,VWS V14.01,2013-08-18 07:07:00,
2013-08-18 00:08:00,64.0,58.4,30.00,SW,215,0.0,0.0,82,0.00,,SCT050,0.00,VWS V14.01,2013-08-18 07:08:00,
2013-08-18 00:09:00,63.9,58.3,30.00,SW,215,0.0,0.0,82,0.00,,SCT050,0.00,VWS V14.01,2013-08-18 07:09:00,
2013-08-18 00:13:00,63.9,58.6,30.00,SW,215,0.0,0.0,83,0.00,,SCT050,0.00,VWS V14.01,2013-08-18 07:13:00,
2013-08-18 00:14:00,63.9,58.6,30.00,SW,215,0.0,0.0,83,0.00,,SCT050,0.00,VWS V14.01,2013-08-18 07:14:00,
2013-08-18 00:16:00,63.7,58.5,30.00,SW,215,0.0,0.0,83,0.00,,SCT050,0.00,VWS V14.01,2013-08-18 07:16:00,
2013-08-18 00:18:00,63.7,58.5,30.00,SW,215,0.0,0.0,83,0.00,,SCT050,0.00,VWS V14.01,2013-08-18 07:18:00,
2013-08-18 00:19:00,63.7,58.5,30.00,SW,215,0.0,0.0,83,0.00,,SCT050,0.00,VWS V14.01,2013-08-18 07:19:00,
2013-08-18 00:20:00,63.7,58.5,30.00,SW,215,0.0,0.0,83,0.00,,SCT050,0.00,VWS V14.01,2013-08-18 07:20:00,
2013-08-18 00:22:00,63.7,58.5,30.00,SW,215,0.0,0.0,83,0.00,,SCT050,0.00,VWS V14.01,2013-08-18 07:22:00,
2013-08-18 00:23:00,63.7,58.5,30.00,SW,215,0.0,0.0,83,0.00,,SCT050,0.00,VWS V14.01,2013-08-18 07:23:00,
2013-08-18 00:25:00,63.5,58.2,30.00,SW,216,0.0,0.0,83,0.00,,SCT050,0.00,VWS V14.01,2013-08-18 07:25:00,
2013-08-18 00:26:00,63.5,58.2,30.00,SW,215,0.0,0.0,83,0.00,,SCT050,0.00,VWS V14.01,2013-08-18 07:26:00,
2013-08-18 00:27:00,63.5,58.2,30.00,SW,215,0.0,0.0,83,0.00,,SCT050,0.00,VWS V14.01,2013-08-18 07:27:00,
2013-08-18 00:30:00,63.4,58.5,30.00,SW,215,0.0,0.0,84,0.00,,SCT050,0.00,VWS V14.01,2013-08-18 07:30:00,
2013-08-18 00:31:00,63.4,58.5,30.00,SW,215,0.0,0.0,84,0.00,,SCT050,0.00,VWS V14.01,2013-08-18 07:31:00,
2013-08-18 00:32:00,63.4,58.5,30.00,SW,215,0.0,0.0,84,0.00,,SCT050,0.00,VWS V14.01,2013-08-18 07:32:00,
2013-08-18 00:34:00,63.4,58.5,30.00,SW,215,0.0,0.0,84,0.00,,SCT050,0.00,VWS V14.01,2013-08-18 07:34:00,
2013-08-18 00:35:00,63.4,58.5,30.00,SW,215,0.0,0.0,84,0.00,,SCT050,0.00,VWS V14.01,2013-08-18 07:35:00,
2013-08-18 00:37:00,63.2,58.3,30.00,SW,216,0.0,0.0,84,0.00,,SCT050,0.00,VWS V14.01,2013-08-18 07:37:00,
2013-08-18 00:38:00,63.2,58.3,30.00,SW,215,0.0,0.0,84,0.00,,SCT050,0.00,VWS V14.01,2013-08-18 07:38:00,
2013-08-18 00:40:00,63.2,58.3,30.00,SW,215,0.0,0.0,84,0.00,,SCT050,0.00,VWS V14.01,2013-08-18 07:40:00,
2013-08-18 00:41:00,63.2,58.3,30.00,SW,215,0.0,0.0,84,0.00,,SCT050,0.00,VWS V14.01,2013-08-18 07:41:00,
2013-08-18 00:43:00,63.1,58.2,30.00,SW,215,0.0,0.0,84,0.00,,SCT050,0.00,VWS V14.01,2013-08-18 07:43:00,
2013-08-18 00:44:00,63.1,58.2,30.00,SW,215,0.0,0.0,84,0.00,,SCT050,0.00,VWS V14.01,2013-08-18 07:44:00,
2013-08-18 00:48:00,63.1,58.2,30.00,SW,215,0.0,0.0,84,0.00,,SCT050,0.00,VWS V14.01,2013-08-18 07:48:00,
2013-08-18 00:49:00,62.9,58.0,30.00,SW,215,0.0,0.0,84,0.00,,SCT050,0.00,VWS V14.01,2013-08-18 07:49:00,
2013-08-18 00:50:00,62.9,58.0,30.00,SW,215,0.0,0.0,84,0.00,,SCT050,0.00,VWS V14.01,2013-08-18 07:50:00,
2013-08-18 00:53:00,62.9,58.0,30.00,SW,215,1.0,1.0,84,0.00,,SCT050,0.00,VWS V14.01,2013-08-18 07:53:00,
2013-08-18 00:55:00,62.7,57.8,30.00,SW,215,0.0,1.0,84,0.00,,SCT050,0.00,VWS V14.01,2013-08-18 07:55:00,
2013-08-18 00:58:00,62.7,57.8,30.00,SW,215,0.0,0.0,84,0.00,,SCT050,0.00,VWS V14.01,2013-08-18 07:58:00,
2013-08-18 01:00:00,62.7,57.8,30.00,SW,215,0.0,1.0,84,0.00,,OVC046,0.00,VWS V14.01,2013-08-18 08:00:00,
2013-08-18 01:01:00,62.6,57.7,30.00,SW,215,0.0,0.0,84,0.00,,OVC046,0.00,VWS V14.01,2013-08-18 08:01:00,
2013-08-18 01:02:00,62.6,57.7,30.00,SW,215,0.0,0.0,84,0.00,,OVC046,0.00,VWS V14.01,2013-08-18 08:02:00,
2013-08-18 01:05:00,62.6,58.0,30.00,SW,215,0.0,0.0,85,0.00,,OVC046,0.00,VWS V14.01,2013-08-18 08:05:00,
2013-08-18 01:06:00,62.6,58.0,30.00,SW,215,0.0,0.0,85,0.00,,OVC046,0.00,VWS V14.01,2013-08-18 08:06:00,
2013-08-18 01:07:00,62.6,58.0,30.00,SW,215,0.0,0.0,85,0.00,,OVC046,0.00,VWS V14.01,2013-08-18 08:07:00,
2013-08-18 01:08:00,62.6,58.0,30.00,SW,215,0.0,0.0,85,0.00,,OVC046,0.00,VWS V14.01,2013-08-18 08:08:00,
2013-08-18 01:11:00,62.4,57.8,30.00,SW,215,0.0,0.0,85,0.00,,OVC046,0.00,VWS V14.01,2013-08-18 08:11:00,
2013-08-18 01:13:00,62.4,57.8,30.00,SW,215,1.0,1.0,85,0.00,,OVC046,0.00,VWS V14.01,2013-08-18 08:13:00,
2013-08-18 01:14:00,62.4,57.8,30.00,SW,215,1.0,2.0,85,0.00,,OVC046,0.00,VWS V14.01,2013-08-18 08:14:00,
2013-08-18 01:18:00,62.4,57.8,30.00,SW,215,0.0,0.0,85,0.00,,OVC046,0.00,VWS V14.01,2013-08-18 08:18:00,
2013-08-18 01:19:00,62.4,57.8,30.00,SW,215,0.0,0.0,85,0.00,,OVC046,0.00,VWS V14.01,2013-08-18 08:19:00,
2013-08-18 01:21:00,62.4,57.8,30.00,SW,215,0.0,1.0,85,0.00,,OVC046,0.00,VWS V14.01,2013-08-18 08:21:00,
2013-08-18 01:23:00,62.4,57.8,30.00,SW,215,0.0,2.0,85,0.00,,OVC046,0.00,VWS V14.01,2013-08-18 08:23:00,
2013-08-18 01:24:00,62.4,57.8,30.00,SW,215,0.0,2.0,85,0.00,,OVC046,0.00,VWS V14.01,2013-08-18 08:24:00,
2013-08-18 01:25:00,62.4,57.8,30.00,SW,215,0.0,2.0,85,0.00,,OVC046,0.00,VWS V14.01,2013-08-18 08:25:00,
2013-08-18 01:29:00,62.3,57.7,30.00,SW,215,0.0,0.0,85,0.00,,OVC046,0.00,VWS V14.01,2013-08-18 08:29:00,
2013-08-18 01:30:00,62.3,57.7,30.00,SW,215,0.0,0.0,85,0.00,,OVC046,0.00,VWS V14.01,2013-08-18 08:30:00,
2013-08-18 01:31:00,62.3,57.7,30.00,SW,215,0.0,0.0,85,0.00,,OVC046,0.00,VWS V14.01,2013-08-18 08:31:00,
2013-08-18 01:33:00,62.3,57.7,30.00,SW,215,0.0,0.0,85,0.00,,OVC046,0.00,VWS V14.01,2013-08-18 08:33:00,
2013-08-18 01:34:00,62.3,57.7,30.00,SW,215,0.0,0.0,85,0.00,,OVC046,0.00,VWS V14.01,2013-08-18 08:34:00,
2013-08-18 01:36:00,62.3,57.7,30.00,SW,215,0.0,0.0,85,0.00,,OVC046,0.00,VWS V14.01,2013-08-18 08:36:00,
2013-08-18 01:38:00,62.3,57.7,30.00,SW,215,0.0,0.0,85,0.00,,OVC046,0.00,VWS V14.01,2013-08-18 08:38:00,
2013-08-18 01:40:00,62.3,57.7,30.00,SW,215,0.0,0.0,85,0.00,,OVC046,0.00,VWS V14.01,2013-08-18 08:40:00,
2013-08-18 01:41:00,62.3,57.7,30.00,SW,215,0.0,0.0,85,0.00,,OVC046,0.00,VWS V14.01,2013-08-18 08:41:00,
2013-08-18 01:43:00,62.3,57.7,30.00,SW,215,0.0,0.0,85,0.00,,OVC046,0.00,VWS V14.01,2013-08-18 08:43:00,
2013-08-18 01:46:00,62.3,57.7,30.00,SW,215,1.0,2.0,85,0.00,,OVC046,0.00,VWS V14.01,2013-08-18 08:46:00,
2013-08-18 01:47:00,62.3,57.7,30.00,SW,215,0.0,2.0,85,0.00,,OVC046,0.00,VWS V14.01,2013-08-18 08:47:00,
2013-08-18 01:48:00,62.3,57.7,30.00,SW,215,0.0,2.0,85,0.00,,OVC046,0.00,VWS V14.01,2013-08-18 08:48:00,
2013-08-18 01:51:00,62.1,57.5,30.00,SW,215,1.0,5.0,85,0.00,,OVC046,0.00,VWS V14.01,2013-08-18 08:51:00,
2013-08-18 01:52:00,62.1,57.2,30.00,SW,215,0.0,1.0,84,0.00,,OVC046,0.00,VWS V14.01,2013-08-18 08:52:00,
2013-08-18 01:53:00,62.1,57.2,30.00,SW,215,0.0,1.0,84,0.00,,OVC046,0.00,VWS V14.01,2013-08-18 08:53:00,
2013-08-18 01:54:00,62.1,57.2,30.00,SW,215,0.0,1.0,84,0.00,,OVC046,0.00,VWS V14.01,2013-08-18 08:54:00,
2013-08-18 01:56:00,62.1,57.2,30.00,SW,215,0.0,0.0,84,0.00,,OVC046,0.00,VWS V14.01,2013-08-18 08:56:00,
2013-08-18 01:59:00,62.1,57.2,30.00,SW,215,0.0,0.0,84,0.00,,OVC046,0.00,VWS V14.01,2013-08-18 08:59:00,
2013-08-18 02:01:00,62.1,57.2,30.00,SW,215,0.0,0.0,84,0.00,,OVC044,0.00,VWS V14.01,2013-08-18 09:01:00,
2013-08-18 02:02:00,62.1,57.2,30.00,SW,215,0.0,0.0,84,0.00,,OVC044,0.00,VWS V14.01,2013-08-18 09:02:00,
2013-08-18 02:04:00,62.1,57.2,30.00,SW,215,0.0,0.0,84,0.00,,OVC044,0.00,VWS V14.01,2013-08-18 09:04:00,
2013-08-18 02:07:00,62.1,56.9,30.00,SW,215,0.0,0.0,83,0.00,,OVC044,0.00,VWS V14.01,2013-08-18 09:07:00,
2013-08-18 02:11:00,62.1,57.2,30.00,SW,215,0.0,0.0,84,0.00,,OVC044,0.00,VWS V14.01,2013-08-18 09:11:00,
2013-08-18 02:12:00,62.1,57.2,30.00,SW,215,0.0,0.0,84,0.00,,OVC044,0.00,VWS V14.01,2013-08-18 09:12:00,
2013-08-18 02:16:00,62.1,57.2,30.00,SW,215,0.0,0.0,84,0.00,,OVC044,0.00,VWS V14.01,2013-08-18 09:16:00,
2013-08-18 02:17:00,62.1,57.2,30.00,SW,215,0.0,0.0,84,0.00,,OVC044,0.00,VWS V14.01,2013-08-18 09:17:00,
2013-08-18 02:19:00,62.1,57.2,30.00,SW,215,0.0,0.0,84,0.00,,OVC044,0.00,VWS V14.01,2013-08-18 09:19:00,
2013-08-18 02:20:00,62.1,57.2,30.00,SW,215,0.0,0.0,84,0.00,,OVC044,0.00,VWS V14.01,2013-08-18 09:20:00,
2013-08-18 02:21:00,62.1,57.2,30.00,SW,215,0.0,0.0,84,0.00,,OVC044,0.00,VWS V14.01,2013-08-18 09:21:00,
2013-08-18 02:26:00,62.0,57.1,30.00,SW,215,0.0,0.0,84,0.00,,OVC044,0.00,VWS V14.01,2013-08-18 09:26:00,
2013-08-18 02:27:00,62.0,57.1,30.00,SW,215,0.0,0.0,84,0.00,,OVC044,0.00,VWS V14.01,2013-08-18 09:27:00,
2013-08-18 02:29:00,62.0,57.1,30.00,SW,215,0.0,0.0,84,0.00,,OVC044,0.00,VWS V14.01,2013-08-18 09:29:00,
2013-08-18 02:32:00,62.0,57.1,30.00,SW,215,0.0,0.0,84,0.00,,OVC044,0.00,VWS V14.01,2013-08-18 09:32:00,
2013-08-18 02:33:00,62.0,57.1,30.00,SW,215,0.0,0.0,84,0.00,,OVC044,0.00,VWS V14.01,2013-08-18 09:33:00,
2013-08-18 02:34:00,62.0,57.1,30.00,SW,215,0.0,0.0,84,0.00,,OVC044,0.00,VWS V14.01,2013-08-18 09:34:00,
2013-08-18 02:35:00,62.0,57.1,30.00,SW,215,0.0,0.0,84,0.00,,OVC044,0.00,VWS V14.01,2013-08-18 09:35:00,
2013-08-18 02:39:00,61.8,56.9,30.00,SW,215,0.0,0.0,84,0.00,,OVC044,0.00,VWS V14.01,2013-08-18 09:39:00,
2013-08-18 02:40:00,61.8,56.9,30.00,SW,215,0.0,0.0,84,0.00,,OVC044,0.00,VWS V14.01,2013-08-18 09:40:00,
2013-08-18 02:41:00,61.8,56.9,30.00,SW,215,0.0,0.0,84,0.00,,OVC044,0.00,VWS V14.01,2013-08-18 09:41:00,
2013-08-18 02:44:00,61.8,56.9,30.00,SW,215,0.0,0.0,84,0.00,,OVC044,0.00,VWS V14.01,2013-08-18 09:44:00,
2013-08-18 02:45:00,61.6,56.7,30.00,SW,215,0.0,0.0,84,0.00,,OVC044,0.00,VWS V14.01,2013-08-18 09:45:00,
2013-08-18 02:46:00,61.6,56.7,30.00,SW,215,0.0,0.0,84,0.00,,OVC044,0.00,VWS V14.01,2013-08-18 09:46:00,
2013-08-18 02:49:00,61.6,56.7,30.00,SW,215,0.0,0.0,84,0.00,,OVC044,0.00,VWS V14.01,2013-08-18 09:49:00,
2013-08-18 02:50:00,61.5,56.6,30.00,SW,215,0.0,0.0,84,0.00,,OVC044,0.00,VWS V14.01,2013-08-18 09:50:00,
2013-08-18 02:54:00,61.3,56.8,30.00,SW,215,0.0,0.0,85,0.00,,OVC044,0.00,VWS V14.01,2013-08-18 09:54:00,
2013-08-18 02:55:00,61.3,56.8,30.00,SW,215,0.0,0.0,85,0.00,,OVC044,0.00,VWS V14.01,2013-08-18 09:55:00,
2013-08-18 02:56:00,61.3,56.8,30.00,SW,215,0.0,0.0,85,0.00,,OVC044,0.00,VWS V14.01,2013-08-18 09:56:00,
2013-08-18 02:57:00,61.3,56.8,30.00,SW,215,0.0,0.0,85,0.00,,OVC044,0.00,VWS V14.01,2013-08-18 09:57:00,
2013-08-18 02:59:00,61.2,56.7,30.00,SW,215,0.0,0.0,85,0.00,,OVC044,0.00,VWS V14.01,2013-08-18 09:59:00,
2013-08-18 03:00:00,61.2,56.7,30.00,SW,215,0.0,0.0,85,0.00,,OVC040,0.00,VWS V14.01,2013-08-18 10:00:00,
2013-08-18 03:01:00,61.2,56.7,30.00,SW,215,0.0,0.0,85,0.00,,OVC040,0.00,VWS V14.01,2013-08-18 10:01:00,
2013-08-18 03:06:00,61.0,56.5,30.00,SW,215,0.0,0.0,85,0.00,,OVC040,0.00,VWS V14.01,2013-08-18 10:06:00,
2013-08-18 03:07:00,61.0,56.5,30.00,SW,215,0.0,0.0,85,0.00,,OVC040,0.00,VWS V14.01,2013-08-18 10:07:00,
2013-08-18 03:08:00,61.0,56.5,30.00,SW,215,0.0,0.0,85,0.00,,OVC040,0.00,VWS V14.01,2013-08-18 10:08:00,
2013-08-18 03:11:00,60.9,56.4,30.00,SW,215,0.0,0.0,85,0.00,,OVC040,0.00,VWS V14.01,2013-08-18 10:11:00,
2013-08-18 03:12:00,60.9,56.4,30.00,SW,215,0.0,0.0,85,0.00,,OVC040,0.00,VWS V14.01,2013-08-18 10:12:00,
2013-08-18 03:13:00,60.9,56.4,30.00,SW,215,0.0,0.0,85,0.00,,OVC040,0.00,VWS V14.01,2013-08-18 10:13:00,
2013-08-18 03:14:00,60.9,56.7,30.00,SW,215,0.0,0.0,86,0.00,,OVC040,0.00,VWS V14.01,2013-08-18 10:14:00,
2013-08-18 03:18:00,60.9,56.7,30.00,SW,215,0.0,0.0,86,0.00,,OVC040,0.00,VWS V14.01,2013-08-18 10:18:00,
2013-08-18 03:19:00,60.9,56.7,30.00,SW,215,0.0,0.0,86,0.00,,OVC040,0.00,VWS V14.01,2013-08-18 10:19:00,
2013-08-18 03:20:00,60.9,56.7,30.00,SW,215,0.0,0.0,86,0.00,,OVC040,0.00,VWS V14.01,2013-08-18 10:20:00,
2013-08-18 03:21:00,60.7,56.5,30.00,SW,215,0.0,0.0,86,0.00,,OVC040,0.00,VWS V14.01,2013-08-18 10:21:00,
2013-08-18 03:22:00,60.7,56.5,30.00,SW,215,0.0,0.0,86,0.00,,OVC040,0.00,VWS V14.01,2013-08-18 10:22:00,
2013-08-18 03:23:00,60.7,56.5,30.00,SW,215,0.0,0.0,86,0.00,,OVC040,0.00,VWS V14.01,2013-08-18 10:23:00,
2013-08-18 03:25:00,60.7,56.5,30.00,SSW,208,0.0,0.0,86,0.00,,OVC040,0.00,VWS V14.01,2013-08-18 10:25:00,
2013-08-18 03:27:00,60.7,56.5,30.00,SW,215,0.0,0.0,86,0.00,,OVC040,0.00,VWS V14.01,2013-08-18 10:27:00,
2013-08-18 03:28:00,60.7,56.5,30.00,SW,215,0.0,0.0,86,0.00,,OVC040,0.00,VWS V14.01,2013-08-18 10:28:00,
2013-08-18 03:29:00,60.7,56.8,30.00,SW,215,0.0,0.0,87,0.00,,OVC040,0.00,VWS V14.01,2013-08-18 10:29:00,
2013-08-18 03:31:00,60.5,56.6,30.00,SW,215,0.0,0.0,87,0.00,,OVC040,0.00,VWS V14.01,2013-08-18 10:31:00,
2013-08-18 03:33:00,60.5,56.6,30.00,SW,215,0.0,0.0,87,0.00,,OVC040,0.00,VWS V14.01,2013-08-18 10:33:00,
2013-08-18 03:34:00,60.5,56.6,30.00,SW,215,0.0,0.0,87,0.00,,OVC040,0.00,VWS V14.01,2013-08-18 10:34:00,
2013-08-18 03:36:00,60.5,56.6,30.00,SW,215,0.0,0.0,87,0.00,,OVC040,0.00,VWS V14.01,2013-08-18 10:36:00,
2013-08-18 03:39:00,60.5,56.6,30.00,SW,215,0.0,0.0,87,0.00,,OVC040,0.00,VWS V14.01,2013-08-18 10:39:00,
2013-08-18 03:40:00,60.5,56.6,30.00,SW,215,0.0,0.0,87,0.00,,OVC040,0.00,VWS V14.01,2013-08-18 10:40:00,
2013-08-18 03:43:00,60.5,56.6,30.00,SW,215,0.0,0.0,87,0.00,,OVC040,0.00,VWS V14.01,2013-08-18 10:43:00,
2013-08-18 03:44:00,60.5,56.6,30.00,SW,215,0.0,0.0,87,0.00,,OVC040,0.00,VWS V14.01,2013-08-18 10:44:00,
2013-08-18 03:49:00,60.4,56.5,30.00,SW,215,0.0,0.0,87,0.00,,OVC040,0.00,VWS V14.01,2013-08-18 10:49:00,
2013-08-18 03:50:00,60.4,56.5,30.00,SSW,208,0.0,0.0,87,0.00,,OVC040,0.00,VWS V14.01,2013-08-18 10:50:00,
2013-08-18 03:51:00,60.4,56.5,30.00,SW,215,0.0,0.0,87,0.00,,OVC040,0.00,VWS V14.01,2013-08-18 10:51:00,
2013-08-18 03:54:00,60.4,56.5,30.00,SW,215,0.0,0.0,87,0.00,,OVC040,0.00,VWS V14.01,2013-08-18 10:54:00,
2013-08-18 03:56:00,60.4,56.5,30.00,SW,215,0.0,0.0,87,0.00,,OVC040,0.00,VWS V14.01,2013-08-18 10:56:00,
2013-08-18 03:57:00,60.4,56.5,30.00,SW,215,0.0,0.0,87,0.00,,OVC040,0.00,VWS V14.01,2013-08-18 10:57:00,
2013-08-18 03:59:00,60.4,56.5,30.00,SW,215,0.0,0.0,87,0.00,,OVC040,0.00,VWS V14.01,2013-08-18 10:59:00,
2013-08-18 04:01:00,60.4,56.5,30.00,SW,215,0.0,0.0,87,0.00,,OVC038,0.00,VWS V14.01,2013-08-18 11:01:00,
2013-08-18 04:02:00,60.4,56.5,30.00,SW,215,0.0,0.0,87,0.00,,OVC038,0.00,VWS V14.01,2013-08-18 11:02:00,
2013-08-18 04:06:00,60.4,56.5,30.00,SW,215,0.0,0.0,87,0.00,,OVC038,0.00,VWS V14.01,2013-08-18 11:06:00,
2013-08-18 04:07:00,60.4,56.8,30.00,SW,215,0.0,0.0,88,0.00,,OVC038,0.00,VWS V14.01,2013-08-18 11:07:00,
2013-08-18 04:08:00,60.4,56.8,30.00,SW,215,0.0,0.0,88,0.00,,OVC038,0.00,VWS V14.01,2013-08-18 11:08:00,
2013-08-18 04:11:00,60.4,56.8,30.00,SW,215,0.0,0.0,88,0.00,,OVC038,0.00,VWS V14.01,2013-08-18 11:11:00,
2013-08-18 04:16:00,60.4,56.8,30.00,SW,215,0.0,0.0,88,0.00,,OVC038,0.00,VWS V14.01,2013-08-18 11:16:00,
2013-08-18 04:17:00,60.4,56.8,30.00,SW,215,0.0,0.0,88,0.00,,OVC038,0.00,VWS V14.01,2013-08-18 11:17:00,
2013-08-18 04:20:00,60.4,56.8,30.00,SW,215,0.0,0.0,88,0.00,,OVC038,0.00,VWS V14.01,2013-08-18 11:20:00,
2013-08-18 04:21:00,60.4,56.8,30.00,SW,215,0.0,0.0,88,0.00,,OVC038,0.00,VWS V14.01,2013-08-18 11:21:00,
2013-08-18 04:22:00,60.4,56.8,30.00,SW,215,0.0,0.0,88,0.00,,OVC038,0.00,VWS V14.01,2013-08-18 11:22:00,
2013-08-18 04:23:00,60.4,56.8,30.00,SW,215,0.0,0.0,88,0.00,,OVC038,0.00,VWS V14.01,2013-08-18 11:23:00,
2013-08-18 04:24:00,60.4,56.8,30.00,SW,215,0.0,0.0,88,0.00,,OVC038,0.00,VWS V14.01,2013-08-18 11:24:00,
2013-08-18 04:27:00,60.4,56.8,30.00,SW,215,0.0,0.0,88,0.00,,OVC038,0.00,VWS V14.01,2013-08-18 11:27:00,
2013-08-18 04:28:00,60.4,56.8,30.00,SW,215,0.0,0.0,88,0.00,,OVC038,0.00,VWS V14.01,2013-08-18 11:28:00,
2013-08-18 04:29:00,60.4,56.8,30.00,SW,215,0.0,0.0,88,0.00,,OVC038,0.00,VWS V14.01,2013-08-18 11:29:00,
2013-08-18 04:34:00,60.4,56.8,30.00,SW,215,0.0,0.0,88,0.00,,OVC038,0.00,VWS V14.01,2013-08-18 11:34:00,
2013-08-18 04:36:00,60.4,56.8,30.00,SW,215,0.0,0.0,88,0.00,,OVC038,0.00,VWS V14.01,2013-08-18 11:36:00,
2013-08-18 04:38:00,60.4,56.8,30.00,SW,215,0.0,0.0,88,0.00,,OVC038,0.00,VWS V14.01,2013-08-18 11:38:00,
2013-08-18 04:40:00,60.4,56.8,30.00,SW,215,0.0,0.0,88,0.00,,OVC038,0.00,VWS V14.01,2013-08-18 11:40:00,
2013-08-18 04:42:00,60.4,56.5,30.00,SW,215,0.0,0.0,87,0.00,,OVC038,0.00,VWS V14.01,2013-08-18 11:42:00,
2013-08-18 04:43:00,60.4,56.5,30.00,SW,215,0.0,0.0,87,0.00,,OVC038,0.00,VWS V14.01,2013-08-18 11:43:00,
2013-08-18 04:45:00,60.4,56.5,30.00,SW,215,0.0,0.0,87,0.00,,OVC038,0.00,VWS V14.01,2013-08-18 11:45:00,
2013-08-18 04:46:00,60.4,56.5,30.01,SW,215,0.0,0.0,87,0.00,,OVC038,0.00,VWS V14.01,2013-08-18 11:46:00,
2013-08-18 04:47:00,60.4,56.5,30.01,SW,215,0.0,0.0,87,0.00,,OVC038,0.00,VWS V14.01,2013-08-18 11:47:00,
2013-08-18 04:48:00,60.4,56.5,30.01,SW,215,0.0,0.0,87,0.00,,OVC038,0.00,VWS V14.01,2013-08-18 11:48:00,
2013-08-18 04:52:00,60.4,56.5,30.01,SW,215,0.0,0.0,87,0.00,,OVC038,0.00,VWS V14.01,2013-08-18 11:52:00,
2013-08-18 04:53:00,60.4,56.5,30.01,SW,215,0.0,0.0,87,0.00,,OVC038,0.00,VWS V14.01,2013-08-18 11:53:00,
2013-08-18 04:54:00,60.4,56.5,30.01,SW,215,0.0,0.0,87,0.00,,OVC038,0.00,VWS V14.01,2013-08-18 11:54:00,
2013-08-18 04:55:00,60.4,56.5,30.01,SW,215,0.0,0.0,87,0.00,,OVC038,0.00,VWS V14.01,2013-08-18 11:55:00,
2013-08-18 04:57:00,60.4,56.5,30.01,SW,215,0.0,0.0,87,0.00,,OVC038,0.00,VWS V14.01,2013-08-18 11:57:00,
2013-08-18 04:58:00,60.4,56.5,30.01,SW,215,0.0,0.0,87,0.00,,OVC038,0.00,VWS V14.01,2013-08-18 11:58:00,
2013-08-18 04:59:00,60.4,56.5,30.01,SW,215,0.0,0.0,87,0.00,,OVC038,0.00,VWS V14.01,2013-08-18 11:59:00,
2013-08-18 05:03:00,60.4,56.5,30.01,SW,215,0.0,0.0,87,0.00,,OVC028,0.00,VWS V14.01,2013-08-18 12:03:00,
2013-08-18 05:04:00,60.4,56.5,30.01,SW,215,0.0,0.0,87,0.00,,OVC028,0.00,VWS V14.01,2013-08-18 12:04:00,
2013-08-18 05:05:00,60.4,56.5,30.01,SW,215,0.0,0.0,87,0.00,,OVC028,0.00,VWS V14.01,2013-08-18 12:05:00,
2013-08-18 05:06:00,60.4,56.5,30.01,SW,215,0.0,0.0,87,0.00,,OVC028,0.00,VWS V14.01,2013-08-18 12:06:00,
2013-08-18 05:08:00,60.5,56.6,30.01,SW,215,0.0,0.0,87,0.00,,OVC028,0.00,VWS V14.01,2013-08-18 12:08:00,
2013-08-18 05:09:00,60.5,56.6,30.01,SW,215,0.0,0.0,87,0.00,,OVC028,0.00,VWS V14.01,2013-08-18 12:09:00,
2013-08-18 05:11:00,60.5,56.6,30.01,SW,215,0.0,0.0,87,0.00,,OVC028,0.00,VWS V14.01,2013-08-18 12:11:00,
2013-08-18 05:13:00,60.5,56.6,30.01,SW,215,0.0,0.0,87,0.00,,OVC028,0.00,VWS V14.01,2013-08-18 12:13:00,
2013-08-18 05:16:00,60.5,56.6,30.01,SW,215,0.0,0.0,87,0.00,,OVC028,0.00,VWS V14.01,2013-08-18 12:16:00,
2013-08-18 05:19:00,60.5,56.6,30.01,SW,215,0.0,0.0,87,0.00,,OVC028,0.00,VWS V14.01,2013-08-18 12:19:00,
2013-08-18 05:22:00,60.5,56.6,30.01,SW,215,0.0,0.0,87,0.00,,OVC028,0.00,VWS V14.01,2013-08-18 12:22:00,
2013-08-18 05:24:00,60.5,56.6,30.01,SW,215,0.0,0.0,87,0.00,,OVC028,0.00,VWS V14.01,2013-08-18 12:24:00,
2013-08-18 05:26:00,60.5,56.6,30.01,SW,215,0.0,0.0,87,0.00,,OVC028,0.00,VWS V14.01,2013-08-18 12:26:00,
2013-08-18 05:27:00,60.5,56.6,30.01,SW,215,0.0,0.0,87,0.00,,OVC028,0.00,VWS V14.01,2013-08-18 12:27:00,
2013-08-18 05:29:00,60.5,56.6,30.01,SW,215,0.0,0.0,87,0.00,,OVC028,0.00,VWS V14.01,2013-08-18 12:29:00,
2013-08-18 05:30:00,60.5,56.6,30.01,SW,215,0.0,0.0,87,0.00,,OVC028,0.00,VWS V14.01,2013-08-18 12:30:00,
2013-08-18 05:31:00,60.5,56.6,30.01,SW,215,0.0,0.0,87,0.00,,OVC028,0.00,VWS V14.01,2013-08-18 12:31:00,
2013-08-18 05:34:00,60.5,56.6,30.01,West,264,0.0,5.0,87,0.00,,OVC028,0.00,VWS V14.01,2013-08-18 12:34:00,
2013-08-18 05:35:00,60.5,56.6,30.01,West,264,0.0,5.0,87,0.00,,OVC028,0.00,VWS V14.01,2013-08-18 12:35:00,
2013-08-18 05:36:00,60.5,56.3,30.01,West,264,0.0,5.0,86,0.00,,OVC028,0.00,VWS V14.01,2013-08-18 12:36:00,
2013-08-18 05:37:00,60.5,56.3,30.01,West,264,0.0,0.0,86,0.00,,OVC028,0.00,VWS V14.01,2013-08-18 12:37:00,
2013-08-18 05:40:00,60.4,56.2,30.01,West,264,0.0,0.0,86,0.00,,OVC028,0.00,VWS V14.01,2013-08-18 12:40:00,
2013-08-18 05:41:00,60.4,56.2,30.01,West,264,0.0,0.0,86,0.00,,OVC028,0.00,VWS V14.01,2013-08-18 12:41:00,
2013-08-18 05:42:00,60.4,56.2,30.01,West,264,0.0,0.0,86,0.00,,OVC028,0.00,VWS V14.01,2013-08-18 12:42:00,
2013-08-18 05:44:00,60.4,56.2,30.01,West,264,0.0,0.0,86,0.00,,OVC028,0.00,VWS V14.01,2013-08-18 12:44:00,
2013-08-18 05:46:00,60.4,56.2,30.02,West,264,0.0,1.0,86,0.00,,OVC028,0.00,VWS V14.01,2013-08-18 12:46:00,
2013-08-18 05:50:00,60.4,56.2,30.02,West,264,0.0,0.0,86,0.00,,OVC028,0.00,VWS V14.01,2013-08-18 12:50:00,
2013-08-18 05:51:00,60.4,55.9,30.02,West,264,0.0,0.0,85,0.00,,OVC028,0.00,VWS V14.01,2013-08-18 12:51:00,
2013-08-18 05:52:00,60.4,55.9,30.02,West,264,0.0,0.0,85,0.00,,OVC028,0.00,VWS V14.01,2013-08-18 12:52:00,
2013-08-18 05:55:00,60.2,55.7,30.02,West,264,0.0,1.0,85,0.00,,OVC028,0.00,VWS V14.01,2013-08-18 12:55:00,
2013-08-18 05:56:00,60.2,55.7,30.02,West,264,0.0,1.0,85,0.00,,OVC028,0.00,VWS V14.01,2013-08-18 12:56:00,
2013-08-18 05:57:00,60.2,55.7,30.02,West,264,0.0,0.0,85,0.00,,OVC028,0.00,VWS V14.01,2013-08-18 12:57:00,
2013-08-18 06:01:00,60.1,55.6,30.02,West,264,0.0,2.0,85,0.00,,OVC028,0.00,VWS V14.01,2013-08-18 13:01:00,
2013-08-18 06:02:00,60.1,55.3,30.02,West,264,0.0,0.0,84,0.00,,OVC028,0.00,VWS V14.01,2013-08-18 13:02:00,
2013-08-18 06:03:00,60.1,55.3,30.02,West,264,1.0,1.0,84,0.00,,OVC028,0.00,VWS V14.01,2013-08-18 13:03:00,
2013-08-18 06:06:00,60.1,55.3,30.02,West,264,0.0,1.0,84,0.00,,OVC028,0.00,VWS V14.01,2013-08-18 13:06:00,
2013-08-18 06:08:00,60.1,55.3,30.02,West,264,0.0,0.0,84,0.00,,OVC028,0.00,VWS V14.01,2013-08-18 13:08:00,
2013-08-18 06:11:00,60.1,55.3,30.02,West,264,0.0,0.0,84,0.00,,OVC028,0.00,VWS V14.01,2013-08-18 13:11:00,
2013-08-18 06:13:00,60.1,55.3,30.02,West,264,0.0,0.0,84,0.00,,OVC028,0.00,VWS V14.01,2013-08-18 13:13:00,
2013-08-18 06:15:00,60.1,55.3,30.02,West,264,0.0,0.0,84,0.00,,OVC028,0.00,VWS V14.01,2013-08-18 13:15:00,
2013-08-18 06:16:00,60.1,55.3,30.02,West,264,0.0,0.0,84,0.00,,OVC028,0.00,VWS V14.01,2013-08-18 13:16:00,
2013-08-18 06:17:00,60.1,55.3,30.02,West,264,0.0,0.0,84,0.00,,OVC028,0.00,VWS V14.01,2013-08-18 13:17:00,
2013-08-18 06:18:00,60.1,55.3,30.02,West,264,0.0,0.0,84,0.00,,OVC028,0.00,VWS V14.01,2013-08-18 13:18:00,
2013-08-18 06:21:00,60.1,55.6,30.02,West,264,0.0,1.0,85,0.00,,OVC028,0.00,VWS V14.01,2013-08-18 13:21:00,
2013-08-18 06:22:00,60.1,55.6,30.02,West,264,1.0,2.0,85,0.00,,OVC028,0.00,VWS V14.01,2013-08-18 13:22:00,
2013-08-18 06:24:00,60.1,55.6,30.02,West,264,0.0,2.0,85,0.00,,OVC028,0.00,VWS V14.01,2013-08-18 13:24:00,
2013-08-18 06:25:00,60.1,55.6,30.02,West,264,0.0,2.0,85,0.00,,OVC028,0.00,VWS V14.01,2013-08-18 13:25:00,
2013-08-18 06:26:00,60.1,55.6,30.02,West,264,0.0,0.0,85,0.00,,OVC028,0.00,VWS V14.01,2013-08-18 13:26:00,
2013-08-18 06:29:00,60.1,55.6,30.02,West,264,0.0,0.0,85,0.00,,OVC028,0.00,VWS V14.01,2013-08-18 13:29:00,
2013-08-18 06:30:00,60.1,55.6,30.02,West,264,0.0,0.0,85,0.00,,OVC028,0.00,VWS V14.01,2013-08-18 13:30:00,
2013-08-18 06:31:00,60.1,55.6,30.02,West,264,0.0,0.0,85,0.00,,OVC028,0.00,VWS V14.01,2013-08-18 13:31:00,
2013-08-18 06:32:00,60.1,55.6,30.02,WSW,258,1.0,2.0,85,0.00,,OVC028,0.00,VWS V14.01,2013-08-18 13:32:00,
2013-08-18 06:33:00,60.1,55.6,30.02,West,264,0.0,2.0,85,0.00,,OVC028,0.00,VWS V14.01,2013-08-18 13:33:00,
2013-08-18 06:35:00,60.1,55.6,30.02,West,264,0.0,2.0,85,0.00,,OVC028,0.00,VWS V14.01,2013-08-18 13:35:00,
2013-08-18 06:37:00,60.1,55.3,30.02,West,264,0.0,0.0,84,0.00,,OVC028,0.00,VWS V14.01,2013-08-18 13:37:00,
2013-08-18 06:40:00,60.1,55.3,30.02,West,264,0.0,0.0,84,0.00,,OVC028,0.00,VWS V14.01,2013-08-18 13:40:00,
2013-08-18 06:41:00,60.1,55.3,30.02,West,264,0.0,0.0,84,0.00,,OVC028,0.00,VWS V14.01,2013-08-18 13:41:00,
2013-08-18 06:42:00,59.9,55.1,30.02,West,264,0.0,0.0,84,0.00,,OVC028,0.00,VWS V14.01,2013-08-18 13:42:00,
2013-08-18 06:45:00,59.9,55.1,30.02,West,264,0.0,0.0,84,0.00,,OVC028,0.00,VWS V14.01,2013-08-18 13:45:00,
2013-08-18 06:48:00,59.9,55.1,30.02,West,264,0.0,0.0,84,0.00,,OVC028,0.00,VWS V14.01,2013-08-18 13:48:00,
2013-08-18 06:50:00,59.9,55.1,30.02,West,264,0.0,0.0,84,0.00,,OVC028,0.00,VWS V14.01,2013-08-18 13:50:00,
2013-08-18 06:51:00,59.9,55.1,30.02,West,264,0.0,0.0,84,0.00,,OVC028,0.00,VWS V14.01,2013-08-18 13:51:00,
2013-08-18 06:52:00,59.9,55.1,30.02,West,264,0.0,0.0,84,0.00,,OVC028,0.00,VWS V14.01,2013-08-18 13:52:00,
2013-08-18 06:53:00,59.9,55.1,30.02,West,264,0.0,0.0,84,0.00,,OVC028,0.00,VWS V14.01,2013-08-18 13:53:00,
2013-08-18 06:55:00,59.9,55.1,30.02,West,264,0.0,0.0,84,0.00,,OVC028,0.00,VWS V14.01,2013-08-18 13:55:00,
2013-08-18 06:57:00,59.9,55.1,30.02,WSW,258,0.0,0.0,84,0.00,,OVC028,0.00,VWS V14.01,2013-08-18 13:57:00,
2013-08-18 06:59:00,60.1,55.3,30.02,West,264,0.0,0.0,84,0.00,,OVC028,0.00,VWS V14.01,2013-08-18 13:59:00,
2013-08-18 07:00:00,60.1,55.3,30.02,West,264,0.0,0.0,84,0.00,,OVC035,0.00,VWS V14.01,2013-08-18 14:00:00,
2013-08-18 07:01:00,60.1,55.3,30.02,West,264,0.0,0.0,84,0.00,,OVC035,0.00,VWS V14.01,2013-08-18 14:01:00,
2013-08-18 07:02:00,60.1,55.3,30.02,West,264,0.0,0.0,84,0.00,,OVC035,0.00,VWS V14.01,2013-08-18 14:02:00,
2013-08-18 07:04:00,60.1,55.3,30.02,West,264,0.0,0.0,84,0.00,,OVC035,0.00,VWS V14.01,2013-08-18 14:04:00,
2013-08-18 07:05:00,60.1,55.3,30.02,West,264,0.0,0.0,84,0.00,,OVC035,0.00,VWS V14.01,2013-08-18 14:05:00,
2013-08-18 07:09:00,60.1,55.3,30.02,West,264,0.0,0.0,84,0.00,,OVC035,0.00,VWS V14.01,2013-08-18 14:09:00,
2013-08-18 07:10:00,60.1,55.3,30.02,West,264,0.0,0.0,84,0.00,,OVC035,0.00,VWS V14.01,2013-08-18 14:10:00,
2013-08-18 07:11:00,59.9,55.1,30.02,West,264,0.0,0.0,84,0.00,,OVC035,0.00,VWS V14.01,2013-08-18 14:11:00,
2013-08-18 07:14:00,60.1,55.3,30.02,West,264,0.0,0.0,84,0.00,,OVC035,0.00,VWS V14.01,2013-08-18 14:14:00,
2013-08-18 07:16:00,60.1,55.3,30.03,West,264,0.0,0.0,84,0.00,,OVC035,0.00,VWS V14.01,2013-08-18 14:16:00,
2013-08-18 07:17:00,60.1,55.3,30.03,West,264,0.0,0.0,84,0.00,,OVC035,0.00,VWS V14.01,2013-08-18 14:17:00,
2013-08-18 07:19:00,60.1,55.3,30.03,West,264,0.0,0.0,84,0.00,,OVC035,0.00,VWS V14.01,2013-08-18 14:19:00,
2013-08-18 07:21:00,60.1,55.3,30.03,West,264,0.0,0.0,84,0.00,,OVC035,0.00,VWS V14.01,2013-08-18 14:21:00,
2013-08-18 07:22:00,60.1,55.3,30.03,West,264,0.0,0.0,84,0.00,,OVC035,0.00,VWS V14.01,2013-08-18 14:22:00,
2013-08-18 07:23:00,60.1,55.3,30.03,West,264,0.0,0.0,84,0.00,,OVC035,0.00,VWS V14.01,2013-08-18 14:23:00,
2013-08-18 07:27:00,60.1,55.3,30.03,West,264,0.0,0.0,84,0.00,,OVC035,0.00,VWS V14.01,2013-08-18 14:27:00,
2013-08-18 07:29:00,60.1,55.3,30.03,West,264,0.0,0.0,84,0.00,,OVC035,0.00,VWS V14.01,2013-08-18 14:29:00,
2013-08-18 07:30:00,60.1,55.3,30.03,West,264,0.0,0.0,84,0.00,,OVC035,0.00,VWS V14.01,2013-08-18 14:30:00,
2013-08-18 07:33:00,60.1,55.3,30.03,West,264,0.0,0.0,84,0.00,,OVC035,0.00,VWS V14.01,2013-08-18 14:33:00,
2013-08-18 07:34:00,60.1,55.3,30.03,West,264,0.0,0.0,84,0.00,,OVC035,0.00,VWS V14.01,2013-08-18 14:34:00,
2013-08-18 07:35:00,60.2,55.3,30.03,West,264,0.0,0.0,84,0.00,,OVC035,0.00,VWS V14.01,2013-08-18 14:35:00,
2013-08-18 07:36:00,60.2,55.3,30.03,West,264,0.0,0.0,84,0.00,,OVC035,0.00,VWS V14.01,2013-08-18 14:36:00,
2013-08-18 07:39:00,60.2,55.3,30.03,West,264,0.0,0.0,84,0.00,,OVC035,0.00,VWS V14.01,2013-08-18 14:39:00,
2013-08-18 07:42:00,60.2,55.3,30.03,West,264,0.0,0.0,84,0.00,,OVC035,0.00,VWS V14.01,2013-08-18 14:42:00,
2013-08-18 07:43:00,60.2,55.3,30.03,West,264,0.0,0.0,84,0.00,,OVC035,0.00,VWS V14.01,2013-08-18 14:43:00,
2013-08-18 07:44:00,60.4,55.5,30.03,West,264,0.0,0.0,84,0.00,,OVC035,0.00,VWS V14.01,2013-08-18 14:44:00,
2013-08-18 07:45:00,60.4,55.5,30.03,West,264,0.0,0.0,84,0.00,,OVC035,0.00,VWS V14.01,2013-08-18 14:45:00,
2013-08-18 07:50:00,60.4,55.2,30.03,West,264,0.0,0.0,83,0.00,,OVC035,0.00,VWS V14.01,2013-08-18 14:50:00,
2013-08-18 07:51:00,60.4,55.2,30.03,West,264,0.0,0.0,83,0.00,,OVC035,0.00,VWS V14.01,2013-08-18 14:51:00,
2013-08-18 07:52:00,60.4,55.2,30.03,West,264,0.0,0.0,83,0.00,,OVC035,0.00,VWS V14.01,2013-08-18 14:52:00,
2013-08-18 07:56:00,60.5,55.3,30.03,West,264,0.0,0.0,83,0.00,,OVC035,0.00,VWS V14.01,2013-08-18 14:56:00,
2013-08-18 07:57:00,60.5,55.3,30.03,West,264,0.0,0.0,83,0.00,,OVC035,0.00,VWS V14.01,2013-08-18 14:57:00,
2013-08-18 07:59:00,60.5,55.3,30.03,West,264,0.0,0.0,83,0.00,,OVC035,0.00,VWS V14.01,2013-08-18 14:59:00,
2013-08-18 08:01:00,60.5,55.3,30.04,West,264,0.0,0.0,83,0.00,,OVC033,0.00,VWS V14.01,2013-08-18 15:01:00,
2013-08-18 08:02:00,60.5,55.3,30.04,West,264,0.0,0.0,83,0.00,,OVC033,0.00,VWS V14.01,2013-08-18 15:02:00,
2013-08-18 08:06:00,60.5,55.3,30.04,West,264,2.0,2.0,83,0.00,,OVC033,0.00,VWS V14.01,2013-08-18 15:06:00,
2013-08-18 08:07:00,60.5,55.3,30.04,WSW,237,1.0,3.0,83,0.00,,OVC033,0.00,VWS V14.01,2013-08-18 15:07:00,
2013-08-18 08:09:00,60.5,55.3,30.04,WSW,237,0.0,3.0,83,0.00,,OVC033,0.00,VWS V14.01,2013-08-18 15:09:00,
2013-08-18 08:11:00,60.7,55.5,30.04,WSW,237,0.0,0.0,83,0.00,,OVC033,0.00,VWS V14.01,2013-08-18 15:11:00,
2013-08-18 08:13:00,60.7,55.5,30.04,WSW,237,0.0,0.0,83,0.00,,OVC033,0.00,VWS V14.01,2013-08-18 15:13:00,
2013-08-18 08:14:00,60.7,55.5,30.04,WSW,237,0.0,0.0,83,0.00,,OVC033,0.00,VWS V14.01,2013-08-18 15:14:00,
2013-08-18 08:16:00,60.9,55.7,30.04,WSW,237,0.0,0.0,83,0.00,,OVC033,0.00,VWS V14.01,2013-08-18 15:16:00,
2013-08-18 08:18:00,60.9,55.7,30.04,WSW,237,0.0,0.0,83,0.00,,OVC033,0.00,VWS V14.01,2013-08-18 15:18:00,
2013-08-18 08:19:00,61.0,55.8,30.04,WSW,237,0.0,0.0,83,0.00,,OVC033,0.00,VWS V14.01,2013-08-18 15:19:00,
2013-08-18 08:23:00,61.2,56.0,30.04,WSW,237,0.0,0.0,83,0.00,,OVC033,0.00,VWS V14.01,2013-08-18 15:23:00,
2013-08-18 08:24:00,61.2,56.0,30.04,WSW,237,0.0,0.0,83,0.00,,OVC033,0.00,VWS V14.01,2013-08-18 15:24:00,
2013-08-18 08:25:00,61.2,56.0,30.04,WSW,237,0.0,0.0,83,0.00,,OVC033,0.00,VWS V14.01,2013-08-18 15:25:00,
2013-08-18 08:26:00,61.2,56.0,30.04,WSW,237,0.0,0.0,83,0.00,,OVC033,0.00,VWS V14.01,2013-08-18 15:26:00,
2013-08-18 08:27:00,61.2,56.0,30.04,WSW,237,0.0,0.0,83,0.00,,OVC033,0.00,VWS V14.01,2013-08-18 15:27:00,
2013-08-18 08:30:00,61.3,56.1,30.04,WSW,237,0.0,0.0,83,0.00,,OVC033,0.00,VWS V14.01,2013-08-18 15:30:00,
2013-08-18 08:31:00,61.3,56.1,30.04,WSW,237,0.0,0.0,83,0.00,,OVC033,0.00,VWS V14.01,2013-08-18 15:31:00,
2013-08-18 08:33:00,61.3,56.1,30.04,WSW,237,0.0,0.0,83,0.00,,OVC033,0.00,VWS V14.01,2013-08-18 15:33:00,
2013-08-18 08:34:00,61.5,56.3,30.04,WSW,237,0.0,0.0,83,0.00,,OVC033,0.00,VWS V14.01,2013-08-18 15:34:00,
2013-08-18 08:36:00,61.5,56.3,30.04,WSW,237,0.0,0.0,83,0.00,,OVC033,0.00,VWS V14.01,2013-08-18 15:36:00,
2013-08-18 08:39:00,61.5,56.3,30.04,WSW,237,0.0,0.0,83,0.00,,OVC033,0.00,VWS V14.01,2013-08-18 15:39:00,
2013-08-18 08:41:00,61.5,56.3,30.04,WSW,237,0.0,0.0,83,0.00,,OVC033,0.00,VWS V14.01,2013-08-18 15:41:00,
2013-08-18 08:45:00,61.6,56.4,30.04,WSW,237,0.0,0.0,83,0.00,,OVC033,0.00,VWS V14.01,2013-08-18 15:45:00,
2013-08-18 08:46:00,61.6,56.4,30.04,WSW,237,0.0,0.0,83,0.00,,OVC033,0.00,VWS V14.01,2013-08-18 15:46:00,
2013-08-18 08:51:00,62.0,56.8,30.04,WSW,237,0.0,2.0,83,0.00,,OVC033,0.00,VWS V14.01,2013-08-18 15:51:00,
2013-08-18 08:52:00,62.0,56.5,30.04,WSW,237,0.0,0.0,82,0.00,,OVC033,0.00,VWS V14.01,2013-08-18 15:52:00,
2013-08-18 08:53:00,62.0,56.5,30.04,WSW,237,2.0,2.0,82,0.00,,OVC033,0.00,VWS V14.01,2013-08-18 15:53:00,
2013-08-18 08:56:00,62.0,56.5,30.04,WSW,237,0.0,2.0,82,0.00,,OVC033,0.00,VWS V14.01,2013-08-18 15:56:00,
2013-08-18 08:58:00,62.1,56.5,30.04,WSW,237,0.0,0.0,82,0.00,,OVC033,0.00,VWS V14.01,2013-08-18 15:58:00,
2013-08-18 09:01:00,62.3,56.7,30.05,WSW,237,0.0,2.0,82,0.00,,OVC031,0.00,VWS V14.01,2013-08-18 16:01:00,
2013-08-18 09:03:00,62.4,56.8,30.05,SSW,200,1.0,2.0,82,0.00,,OVC031,0.00,VWS V14.01,2013-08-18 16:03:00,
2013-08-18 09:04:00,62.4,56.5,30.05,SSW,200,0.0,2.0,81,0.00,,OVC031,0.00,VWS V14.01,2013-08-18 16:04:00,
2013-08-18 09:06:00,62.4,56.5,30.05,SSW,200,1.0,2.0,81,0.00,,OVC031,0.00,VWS V14.01,2013-08-18 16:06:00,
2013-08-18 09:08:00,62.4,56.5,30.05,SSW,200,0.0,1.0,81,0.00,,OVC031,0.00,VWS V14.01,2013-08-18 16:08:00,
2013-08-18 09:09:00,62.4,56.5,30.05,SSW,200,0.0,2.0,81,0.00,,OVC031,0.00,VWS V14.01,2013-08-18 16:09:00,
2013-08-18 09:10:00,62.6,56.7,30.05,SSW,200,1.0,2.0,81,0.00,,OVC031,0.00,VWS V14.01,2013-08-18 16:10:00,
2013-08-18 09:15:00,62.7,56.5,30.05,East,93,3.0,3.0,80,0.00,,OVC031,0.00,VWS V14.01,2013-08-18 16:15:00,
2013-08-18 09:16:00,62.7,56.5,30.05,East,93,5.0,5.0,80,0.00,,OVC031,0.00,VWS V14.01,2013-08-18 16:16:00,
2013-08-18 09:18:00,62.7,56.5,30.05,ESE,107,2.0,5.0,80,0.00,,OVC031,0.00,VWS V14.01,2013-08-18 16:18:00,
2013-08-18 09:21:00,62.7,56.5,30.05,SSE,158,0.0,5.0,80,0.00,,OVC031,0.00,VWS V14.01,2013-08-18 16:21:00,
2013-08-18 09:24:00,62.9,56.6,30.05,SSE,167,2.0,2.0,80,0.00,,OVC031,0.00,VWS V14.01,2013-08-18 16:24:00,
2013-08-18 09:27:00,63.1,56.8,30.05,South,186,2.0,3.0,80,0.00,,OVC031,0.00,VWS V14.01,2013-08-18 16:27:00,
2013-08-18 09:28:00,63.1,56.8,30.05,South,186,0.0,3.0,80,0.00,,OVC031,0.00,VWS V14.01,2013-08-18 16:28:00,
2013-08-18 09:30:00,63.2,56.9,30.05,South,186,0.0,3.0,80,0.00,,OVC031,0.00,VWS V14.01,2013-08-18 16:30:00,
2013-08-18 09:33:00,63.5,57.2,30.05,SSW,200,3.0,4.0,80,0.00,,OVC031,0.00,VWS V14.01,2013-08-18 16:33:00,
2013-08-18 09:35:00,63.5,56.9,30.05,SSW,200,1.0,4.0,79,0.00,,OVC031,0.00,VWS V14.01,2013-08-18 16:35:00,
2013-08-18 09:36:00,63.5,56.9,30.05,SSW,200,0.0,4.0,79,0.00,,OVC031,0.00,VWS V14.01,2013-08-18 16:36:00,
2013-08-18 09:39:00,63.9,57.3,30.05,SSW,200,0.0,0.0,79,0.00,,OVC031,0.00,VWS V14.01,2013-08-18 16:39:00,
2013-08-18 09:41:00,64.0,57.4,30.05,SSW,200,0.0,0.0,79,0.00,,OVC031,0.00,VWS V14.01,2013-08-18 16:41:00,
2013-08-18 09:44:00,64.2,56.8,30.05,SSW,202,6.0,7.0,77,0.00,,OVC031,0.00,VWS V14.01,2013-08-18 16:44:00,
2013-08-18 09:46:00,64.3,57.0,30.04,SW,223,0.0,7.0,77,0.00,,OVC031,0.00,VWS V14.01,2013-08-18 16:46:00,
2013-08-18 09:47:00,64.3,57.3,30.04,SW,223,2.0,5.0,78,0.00,,OVC031,0.00,VWS V14.01,2013-08-18 16:47:00,
2013-08-18 09:48:00,64.5,57.1,30.04,SW,227,2.0,5.0,77,0.00,,OVC031,0.00,VWS V14.01,2013-08-18 16:48:00,
2013-08-18 09:51:00,64.7,57.0,30.04,WSW,243,2.0,6.0,76,0.00,,OVC031,0.00,VWS V14.01,2013-08-18 16:51:00,
2013-08-18 09:52:00,64.8,57.1,30.04,WSW,243,3.0,3.0,76,0.00,,OVC031,0.00,VWS V14.01,2013-08-18 16:52:00,
2013-08-18 09:53:00,64.8,57.1,30.04,WSW,240,2.0,6.0,76,0.00,,OVC031,0.00,VWS V14.01,2013-08-18 16:53:00,
2013-08-18 09:54:00,64.8,57.1,30.04,SW,227,3.0,6.0,76,0.00,,OVC031,0.00,VWS V14.01,2013-08-18 16:54:00,
2013-08-18 09:56:00,65.0,57.3,30.04,SW,224,0.0,6.0,76,0.00,,OVC031,0.00,VWS V14.01,2013-08-18 16:56:00,
2013-08-18 09:57:00,65.0,57.3,30.04,WSW,243,4.0,5.0,76,0.00,,OVC031,0.00,VWS V14.01,2013-08-18 16:57:00,
2013-08-18 09:58:00,65.0,56.9,30.04,WSW,248,7.0,7.0,75,0.00,,OVC031,0.00,VWS V14.01,2013-08-18 16:58:00,
2013-08-18 10:01:00,64.8,56.7,30.05,SW,229,0.0,0.0,75,0.00,,OVC030,0.00,VWS V14.01,2013-08-18 17:01:00,
2013-08-18 10:02:00,64.8,57.1,30.05,SW,229,0.0,0.0,76,0.00,,OVC030,0.00,VWS V14.01,2013-08-18 17:02:00,
2013-08-18 10:04:00,64.7,57.0,30.05,WSW,237,0.0,6.0,76,0.00,,OVC030,0.00,VWS V14.01,2013-08-18 17:04:00,
2013-08-18 10:06:00,64.7,57.0,30.05,WSW,237,0.0,6.0,76,0.00,,OVC030,0.00,VWS V14.01,2013-08-18 17:06:00,
2013-08-18 10:07:00,64.7,57.0,30.05,WSW,237,0.0,0.0,76,0.00,,OVC030,0.00,VWS V14.01,2013-08-18 17:07:00,
2013-08-18 10:09:00,64.8,57.1,30.05,South,175,0.0,2.0,76,0.00,,OVC030,0.00,VWS V14.01,2013-08-18 17:09:00,
2013-08-18 10:11:00,64.8,56.7,30.05,ESE,116,1.0,6.0,75,0.00,,OVC030,0.00,VWS V14.01,2013-08-18 17:11:00,
2013-08-18 10:12:00,65.0,57.6,30.05,ESE,116,0.0,2.0,77,0.00,,OVC030,0.00,VWS V14.01,2013-08-18 17:12:00,
2013-08-18 10:13:00,65.2,57.8,30.05,South,186,3.0,3.0,77,0.00,,OVC030,0.00,VWS V14.01,2013-08-18 17:13:00,
2013-08-18 10:14:00,65.2,57.5,30.05,SSW,195,0.0,3.0,76,0.00,,OVC030,0.00,VWS V14.01,2013-08-18 17:14:00,
2013-08-18 10:17:00,65.6,57.8,30.04,SSW,200,0.0,2.0,76,0.00,,OVC030,0.00,VWS V14.01,2013-08-18 17:17:00,
2013-08-18 10:18:00,66.0,58.2,30.04,SSE,155,1.0,5.0,76,0.00,,OVC030,0.00,VWS V14.01,2013-08-18 17:18:00,
2013-08-18 10:21:00,66.0,57.1,30.04,SW,215,2.0,6.0,73,0.00,,OVC030,0.00,VWS V14.01,2013-08-18 17:21:00,
2013-08-18 10:22:00,66.1,57.2,30.04,SW,215,3.0,3.0,73,0.00,,OVC030,0.00,VWS V14.01,2013-08-18 17:22:00,
2013-08-18 10:24:00,66.3,57.8,30.04,SW,215,0.0,3.0,74,0.00,,OVC030,0.00,VWS V14.01,2013-08-18 17:24:00,
2013-08-18 10:26:00,66.6,57.7,30.04,SW,215,0.0,3.0,73,0.00,,OVC030,0.00,VWS V14.01,2013-08-18 17:26:00,
2013-08-18 10:29:00,66.9,56.8,30.04,ESE,106,1.0,7.0,70,0.00,,OVC030,0.00,VWS V14.01,2013-08-18 17:29:00,
2013-08-18 10:30:00,66.9,57.2,30.04,East,99,2.0,7.0,71,0.00,,OVC030,0.00,VWS V14.01,2013-08-18 17:30:00,
2013-08-18 10:31:00,66.9,57.2,30.04,South,178,1.0,1.0,71,0.00,,OVC030,0.00,VWS V14.01,2013-08-18 17:31:00,
2013-08-18 10:32:00,67.1,57.4,30.04,South,176,2.0,5.0,71,0.00,,OVC030,0.00,VWS V14.01,2013-08-18 17:32:00,
2013-08-18 10:34:00,67.1,57.0,30.04,South,174,0.0,5.0,70,0.00,,OVC030,0.00,VWS V14.01,2013-08-18 17:34:00,
2013-08-18 10:36:00,66.9,56.8,30.04,East,79,1.0,5.0,70,0.00,,OVC030,0.00,VWS V14.01,2013-08-18 17:36:00,
2013-08-18 10:39:00,67.1,57.0,30.04,SE,138,6.0,6.0,70,0.00,,OVC030,0.00,VWS V14.01,2013-08-18 17:39:00,
2013-08-18 10:41:00,67.3,57.6,30.04,SE,145,0.0,2.0,71,0.00,,OVC030,0.00,VWS V14.01,2013-08-18 17:41:00,
2013-08-18 10:44:00,67.8,58.1,30.04,SSW,209,1.0,5.0,71,0.00,,OVC030,0.00,VWS V14.01,2013-08-18 17:44:00,
2013-08-18 10:47:00,68.1,58.0,30.04,SSW,202,2.0,2.0,70,0.00,,OVC030,0.00,VWS V14.01,2013-08-18 17:47:00,
2013-08-18 10:48:00,68.3,57.8,30.04,WSW,250,2.0,6.0,69,0.00,,OVC030,0.00,VWS V14.01,2013-08-18 17:48:00,
2013-08-18 10:49:00,68.3,57.3,30.04,SSE,155,1.0,6.0,68,0.00,,OVC030,0.00,VWS V14.01,2013-08-18 17:49:00,
2013-08-18 10:52:00,68.6,57.6,30.04,WSW,239,0.0,2.0,68,0.00,,OVC030,0.00,VWS V14.01,2013-08-18 17:52:00,
2013-08-18 10:53:00,68.8,57.8,30.04,WSW,239,0.0,2.0,68,0.00,,OVC030,0.00,VWS V14.01,2013-08-18 17:53:00,
2013-08-18 10:54:00,68.8,57.4,30.04,SE,138,0.0,2.0,67,0.00,,OVC030,0.00,VWS V14.01,2013-08-18 17:54:00,
2013-08-18 10:55:00,68.8,57.4,30.04,SSE,162,2.0,3.0,67,0.00,,OVC030,0.00,VWS V14.01,2013-08-18 17:55:00,
2013-08-18 10:57:00,68.8,56.6,30.04,East,83,3.0,7.0,65,0.00,,OVC030,0.00,VWS V14.01,2013-08-18 17:57:00,
2013-08-18 10:59:00,68.8,56.6,30.04,SE,143,8.0,13.0,65,0.00,,OVC030,0.00,VWS V14.01,2013-08-18 17:59:00,
2013-08-18 11:00:00,68.6,56.4,30.04,SE,144,0.0,13.0,65,0.00,,BKN070,0.00,VWS V14.01,2013-08-18 18:00:00,
2013-08-18 11:01:00,68.6,56.8,30.04,East,85,0.0,13.0,66,0.00,,BKN070,0.00,VWS V14.01,2013-08-18 18:01:00,
2013-08-18 11:02:00,68.8,57.4,30.04,SW,224,4.0,4.0,67,0.00,,BKN070,0.00,VWS V14.01,2013-08-18 18:02:00,
2013-08-18 11:03:00,68.9,57.5,30.04,SW,233,0.0,5.0,67,0.00,,BKN070,0.00,VWS V14.01,2013-08-18 18:03:00,
2013-08-18 11:05:00,69.4,58.0,30.04,South,176,1.0,5.0,67,0.00,,BKN070,0.00,VWS V14.01,2013-08-18 18:05:00,
2013-08-18 11:07:00,69.6,57.8,30.04,SE,131,0.0,0.0,66,0.00,,BKN070,0.00,VWS V14.01,2013-08-18 18:07:00,
2013-08-18 11:09:00,70.1,57.4,30.04,South,176,0.0,0.0,64,0.00,,BKN070,0.00,VWS V14.01,2013-08-18 18:09:00,
2013-08-18 11:10:00,70.3,58.0,30.04,ESE,121,6.0,6.0,65,0.00,,BKN070,0.00,VWS V14.01,2013-08-18 18:10:00,
2013-08-18 11:11:00,70.4,57.7,30.04,SSE,164,0.0,6.0,64,0.00,,BKN070,0.00,VWS V14.01,2013-08-18 18:11:00,
2013-08-18 11:13:00,70.8,57.2,30.04,SSE,164,0.0,0.0,62,0.00,,BKN070,0.00,VWS V14.01,2013-08-18 18:13:00,
2013-08-18 11:15:00,70.9,56.8,30.04,ENE,75,0.0,2.0,61,0.00,,BKN070,0.00,VWS V14.01,2013-08-18 18:15:00,
2013-08-18 11:16:00,70.9,57.2,30.04,ENE,75,4.0,4.0,62,0.00,,BKN070,0.00,VWS V14.01,2013-08-18 18:16:00,
2013-08-18 11:18:00,70.9,56.3,30.04,NNE,25,0.0,5.0,60,0.00,,BKN070,0.00,VWS V14.01,2013-08-18 18:18:00,
2013-08-18 11:22:00,71.6,57.0,30.04,SW,219,0.0,1.0,60,0.00,,BKN070,0.00,VWS V14.01,2013-08-18 18:22:00,
2013-08-18 11:23:00,71.8,57.2,30.04,SSW,198,1.0,3.0,60,0.00,,BKN070,0.00,VWS V14.01,2013-08-18 18:23:00,
2013-08-18 11:25:00,72.0,57.4,30.04,ENE,62,6.0,7.0,60,0.00,,BKN070,0.00,VWS V14.01,2013-08-18 18:25:00,
2013-08-18 11:27:00,71.8,56.7,30.04,SE,136,0.0,6.0,59,0.00,,BKN070,0.00,VWS V14.01,2013-08-18 18:27:00,
2013-08-18 11:28:00,71.8,56.2,30.04,ESE,120,1.0,6.0,58,0.00,,BKN070,0.00,VWS V14.01,2013-08-18 18:28:00,
2013-08-18 11:29:00,71.6,56.5,30.04,ESE,120,1.0,6.0,59,0.00,,BKN070,0.00,VWS V14.01,2013-08-18 18:29:00,
2013-08-18 11:31:00,71.8,57.2,30.04,WSW,247,4.0,6.0,60,0.00,,BKN070,0.00,VWS V14.01,2013-08-18 18:31:00,
2013-08-18 11:32:00,72.0,57.4,30.04,South,171,3.0,4.0,60,0.00,,BKN070,0.00,VWS V14.01,2013-08-18 18:32:00,
2013-08-18 11:37:00,72.7,57.1,30.04,NW,320,1.0,3.0,58,0.00,,BKN070,0.00,VWS V14.01,2013-08-18 18:37:00,
2013-08-18 11:38:00,72.8,56.7,30.04,West,281,0.0,3.0,57,0.00,,BKN070,0.00,VWS V14.01,2013-08-18 18:38:00,
2013-08-18 11:39:00,72.8,57.7,30.04,East,96,3.0,5.0,59,0.00,,BKN070,0.00,VWS V14.01,2013-08-18 18:39:00,
2013-08-18 11:40:00,72.7,56.1,30.04,ESE,110,0.0,5.0,56,0.00,,BKN070,0.00,VWS V14.01,2013-08-18 18:40:00,
2013-08-18 11:43:00,72.8,56.2,30.04,South,186,0.0,2.0,56,0.00,,BKN070,0.00,VWS V14.01,2013-08-18 18:43:00,
2013-08-18 11:44:00,73.0,57.4,30.04,South,185,0.0,2.0,58,0.00,,BKN070,0.00,VWS V14.01,2013-08-18 18:44:00,
2013-08-18 11:46:00,73.2,56.1,30.03,South,188,0.0,2.0,55,0.00,,BKN070,0.00,VWS V14.01,2013-08-18 18:46:00,
2013-08-18 11:48:00,73.3,56.2,30.03,NE,54,0.0,4.0,55,0.00,,BKN070,0.00,VWS V14.01,2013-08-18 18:48:00,
2013-08-18 11:49:00,73.5,56.9,30.03,NE,55,0.0,4.0,56,0.00,,BKN070,0.00,VWS V14.01,2013-08-18 18:49:00,
2013-08-18 11:50:00,73.5,55.9,30.03,SE,127,0.0,5.0,54,0.00,,BKN070,0.00,VWS V14.01,2013-08-18 18:50:00,
2013-08-18 11:53:00,73.5,55.9,30.03,SE,136,0.0,0.0,54,0.00,,BKN070,0.00,VWS V14.01,2013-08-18 18:53:00,
2013-08-18 11:54:00,73.7,56.5,30.03,SE,136,0.0,0.0,55,0.00,,BKN070,0.00,VWS V14.01,2013-08-18 18:54:00,
2013-08-18 11:55:00,73.9,56.2,30.03,NE,56,3.0,3.0,54,0.00,,BKN070,0.00,VWS V14.01,2013-08-18 18:55:00,
2013-08-18 11:57:00,74.0,56.8,30.03,ENE,58,0.0,1.0,55,0.00,,BKN070,0.00,VWS V14.01,2013-08-18 18:57:00,
2013-08-18 11:58:00,74.2,57.0,30.03,North,0,0.0,1.0,55,0.00,,BKN070,0.00,VWS V14.01,2013-08-18 18:58:00,
2013-08-18 11:59:00,74.2,56.5,30.03,WSW,251,1.0,7.0,54,0.00,,BKN070,0.00,VWS V14.01,2013-08-18 18:59:00,
2013-08-18 12:01:00,74.2,55.5,30.03,WSW,244,6.0,7.0,52,0.00,,CLR,0.00,VWS V14.01,2013-08-18 19:01:00,
2013-08-18 12:03:00,74.0,55.3,30.03,West,264,2.0,10.0,52,0.00,,CLR,0.00,VWS V14.01,2013-08-18 19:03:00,
2013-08-18 12:04:00,73.9,56.2,30.03,West,264,2.0,10.0,54,0.00,,CLR,0.00,VWS V14.01,2013-08-18 19:04:00,
2013-08-18 12:06:00,73.7,55.5,30.03,SW,227,2.0,7.0,53,0.00,,CLR,0.00,VWS V14.01,2013-08-18 19:06:00,
2013-08-18 12:08:00,73.5,55.9,30.03,WSW,243,6.0,8.0,54,0.00,,CLR,0.00,VWS V14.01,2013-08-18 19:08:00,
2013-08-18 12:09:00,73.5,55.9,30.03,WSW,250,3.0,8.0,54,0.00,,CLR,0.00,VWS V14.01,2013-08-18 19:09:00,
2013-08-18 12:11:00,73.3,55.7,30.03,SW,229,6.0,8.0,54,0.00,,CLR,0.00,VWS V14.01,2013-08-18 19:11:00,
2013-08-18 12:14:00,73.3,56.2,30.03,South,181,3.0,6.0,55,0.00,,CLR,0.00,VWS V14.01,2013-08-18 19:14:00,
2013-08-18 12:15:00,73.5,55.9,30.03,WSW,239,1.0,6.0,54,0.00,,CLR,0.00,VWS V14.01,2013-08-18 19:15:00,
2013-08-18 12:16:00,73.5,55.9,30.03,WSW,239,0.0,6.0,54,0.00,,CLR,0.00,VWS V14.01,2013-08-18 19:16:00,
2013-08-18 12:17:00,73.7,55.5,30.03,SW,229,5.0,6.0,53,0.00,,CLR,0.00,VWS V14.01,2013-08-18 19:17:00,
2013-08-18 12:19:00,73.5,55.3,30.03,NW,309,0.0,10.0,53,0.00,,CLR,0.00,VWS V14.01,2013-08-18 19:19:00,
2013-08-18 12:22:00,73.2,55.1,30.03,SE,145,3.0,7.0,53,0.00,,CLR,0.00,VWS V14.01,2013-08-18 19:22:00,
2013-08-18 12:24:00,73.3,55.7,30.03,South,189,2.0,7.0,54,0.00,,CLR,0.00,VWS V14.01,2013-08-18 19:24:00,
2013-08-18 12:27:00,73.3,55.7,30.03,SE,140,1.0,5.0,54,0.00,,CLR,0.00,VWS V14.01,2013-08-18 19:27:00,
2013-08-18 12:28:00,73.5,55.3,30.03,SE,140,0.0,5.0,53,0.00,,CLR,0.00,VWS V14.01,2013-08-18 19:28:00,
2013-08-18 12:31:00,74.2,54.9,30.03,WSW,250,0.0,0.0,51,0.00,,CLR,0.00,VWS V14.01,2013-08-18 19:31:00,
2013-08-18 12:32:00,74.2,54.9,30.03,WSW,239,5.0,6.0,51,0.00,,CLR,0.00,VWS V14.01,2013-08-18 19:32:00,
2013-08-18 12:34:00,74.2,55.5,30.03,SSW,205,5.0,8.0,52,0.00,,CLR,0.00,VWS V14.01,2013-08-18 19:34:00,
2013-08-18 12:35:00,74.2,55.5,30.03,West,268,0.0,8.0,52,0.00,,CLR,0.00,VWS V14.01,2013-08-18 19:35:00,
2013-08-18 12:36:00,74.2,55.5,30.03,West,268,2.0,8.0,52,0.00,,CLR,0.00,VWS V14.01,2013-08-18 19:36:00,
2013-08-18 12:39:00,74.4,55.1,30.03,SSE,154,0.0,5.0,51,0.00,,CLR,0.00,VWS V14.01,2013-08-18 19:39:00,
2013-08-18 12:41:00,74.7,55.4,30.03,SSE,155,0.0,5.0,51,0.00,,CLR,0.00,VWS V14.01,2013-08-18 19:41:00,
2013-08-18 12:45:00,75.3,57.0,30.03,ENE,73,2.0,6.0,53,0.00,,CLR,0.00,VWS V14.01,2013-08-18 19:45:00,
2013-08-18 12:48:00,75.4,56.0,30.03,NW,316,4.0,7.0,51,0.00,,CLR,0.00,VWS V14.01,2013-08-18 19:48:00,
2013-08-18 12:49:00,75.4,56.0,30.03,North,1,5.0,7.0,51,0.00,,CLR,0.00,VWS V14.01,2013-08-18 19:49:00,
2013-08-18 12:50:00,75.6,56.2,30.03,West,281,1.0,7.0,51,0.00,,CLR,0.00,VWS V14.01,2013-08-18 19:50:00,
2013-08-18 12:54:00,76.0,56.0,30.03,East,99,1.0,5.0,50,0.00,,CLR,0.00,VWS V14.01,2013-08-18 19:54:00,
2013-08-18 12:55:00,76.1,56.1,30.03,ESE,107,0.0,5.0,50,0.00,,CLR,0.00,VWS V14.01,2013-08-18 19:55:00,
2013-08-18 12:56:00,76.1,56.1,30.03,SSE,158,0.0,5.0,50,0.00,,CLR,0.00,VWS V14.01,2013-08-18 19:56:00,
2013-08-18 13:01:00,76.3,55.8,30.03,SW,220,1.0,7.0,49,0.00,,CLR,0.00,VWS V14.01,2013-08-18 20:01:00,
2013-08-18 13:02:00,76.1,56.1,30.03,SW,227,0.0,5.0,50,0.00,,CLR,0.00,VWS V14.01,2013-08-18 20:02:00,
2013-08-18 13:03:00,76.1,56.7,30.03,SSW,206,1.0,5.0,51,0.00,,CLR,0.00,VWS V14.01,2013-08-18 20:03:00,
2013-08-18 13:04:00,76.1,56.7,30.03,SSE,148,2.0,6.0,51,0.00,,CLR,0.00,VWS V14.01,2013-08-18 20:04:00,
2013-08-18 13:08:00,76.0,56.0,30.03,SSE,160,2.0,4.0,50,0.00,,CLR,0.00,VWS V14.01,2013-08-18 20:08:00,
2013-08-18 13:09:00,76.0,56.0,30.03,West,263,4.0,5.0,50,0.00,,CLR,0.00,VWS V14.01,2013-08-18 20:09:00,
2013-08-18 13:11:00,76.0,56.6,30.03,SSE,168,3.0,7.0,51,0.00,,CLR,0.00,VWS V14.01,2013-08-18 20:11:00,
2013-08-18 13:13:00,76.0,56.0,30.03,SW,227,7.0,7.0,50,0.00,,CLR,0.00,VWS V14.01,2013-08-18 20:13:00,
2013-08-18 13:15:00,75.8,56.4,30.03,WSW,240,1.0,7.0,51,0.00,,CLR,0.00,VWS V14.01,2013-08-18 20:15:00,
2013-08-18 13:16:00,76.0,57.1,30.03,WSW,247,6.0,7.0,52,0.00,,CLR,0.00,VWS V14.01,2013-08-18 20:16:00,
2013-08-18 13:18:00,76.1,56.1,30.03,WNW,285,1.0,6.0,50,0.00,,CLR,0.00,VWS V14.01,2013-08-18 20:18:00,
2013-08-18 13:20:00,76.5,57.0,30.03,NW,320,7.0,8.0,51,0.00,,CLR,0.00,VWS V14.01,2013-08-18 20:20:00,
2013-08-18 13:21:00,76.3,56.9,30.03,West,280,1.0,8.0,51,0.00,,CLR,0.00,VWS V14.01,2013-08-18 20:21:00,
2013-08-18 13:22:00,76.3,55.8,30.03,West,271,3.0,3.0,49,0.00,,CLR,0.00,VWS V14.01,2013-08-18 20:22:00,
2013-08-18 13:25:00,76.1,56.1,30.03,North,0,0.0,6.0,50,0.00,,CLR,0.00,VWS V14.01,2013-08-18 20:25:00,
2013-08-18 13:26:00,76.0,56.0,30.03,NNW,333,0.0,6.0,50,0.00,,CLR,0.00,VWS V14.01,2013-08-18 20:26:00,
2013-08-18 13:29:00,76.1,56.1,30.03,SE,136,0.0,2.0,50,0.00,,CLR,0.00,VWS V14.01,2013-08-18 20:29:00,
2013-08-18 13:30:00,76.1,56.1,30.03,East,85,3.0,7.0,50,0.00,,CLR,0.00,VWS V14.01,2013-08-18 20:30:00,
2013-08-18 13:31:00,76.0,55.5,30.03,SSE,152,3.0,12.0,49,0.00,,CLR,0.00,VWS V14.01,2013-08-18 20:31:00,
2013-08-18 13:34:00,76.0,57.1,30.03,WSW,244,2.0,7.0,52,0.00,,CLR,0.00,VWS V14.01,2013-08-18 20:34:00,
2013-08-18 13:35:00,76.1,57.8,30.03,WSW,241,1.0,7.0,53,0.00,,CLR,0.00,VWS V14.01,2013-08-18 20:35:00,
2013-08-18 13:36:00,76.3,57.4,30.03,South,174,0.0,7.0,52,0.00,,CLR,0.00,VWS V14.01,2013-08-18 20:36:00,
2013-08-18 13:37:00,76.3,56.3,30.03,WSW,240,6.0,7.0,50,0.00,,CLR,0.00,VWS V14.01,2013-08-18 20:37:00,
2013-08-18 13:41:00,76.5,55.9,30.03,SW,223,2.0,9.0,49,0.00,,CLR,0.00,VWS V14.01,2013-08-18 20:41:00,
2013-08-18 13:42:00,76.5,56.5,30.03,South,188,3.0,3.0,50,0.00,,CLR,0.00,VWS V14.01,2013-08-18 20:42:00,
2013-08-18 13:43:00,76.7,56.7,30.03,SW,216,2.0,3.0,50,0.00,,CLR,0.00,VWS V14.01,2013-08-18 20:43:00,
2013-08-18 13:46:00,77.2,57.1,30.03,SSW,209,0.0,6.0,50,0.00,,CLR,0.00,VWS V14.01,2013-08-18 20:46:00,
2013-08-18 13:47:00,77.2,56.0,30.03,SSW,209,0.0,0.0,48,0.00,,CLR,0.00,VWS V14.01,2013-08-18 20:47:00,
2013-08-18 13:48:00,77.2,56.6,30.03,SE,136,0.0,2.0,49,0.00,,CLR,0.00,VWS V14.01,2013-08-18 20:48:00,
2013-08-18 13:49:00,77.4,56.8,30.03,SE,136,5.0,5.0,49,0.00,,CLR,0.00,VWS V14.01,2013-08-18 20:49:00,
2013-08-18 13:51:00,77.6,57.0,30.03,NE,40,2.0,6.0,49,0.00,,CLR,0.00,VWS V14.01,2013-08-18 20:51:00,
2013-08-18 13:54:00,77.6,56.4,30.03,SW,229,1.0,7.0,48,0.00,,CLR,0.00,VWS V14.01,2013-08-18 20:54:00,
2013-08-18 13:56:00,77.6,57.0,30.03,WSW,244,10.0,12.0,49,0.00,,CLR,0.00,VWS V14.01,2013-08-18 20:56:00,
2013-08-18 14:01:00,77.0,56.4,30.03,SW,224,3.0,11.0,49,0.00,,CLR,0.00,VWS V14.01,2013-08-18 21:01:00,
2013-08-18 14:02:00,77.0,56.4,30.03,West,277,6.0,11.0,49,0.00,,CLR,0.00,VWS V14.01,2013-08-18 21:02:00,
2013-08-18 14:04:00,77.0,56.4,30.03,WSW,253,10.0,12.0,49,0.00,,CLR,0.00,VWS V14.01,2013-08-18 21:04:00,
2013-08-18 14:06:00,77.0,56.4,30.03,SW,233,1.0,12.0,49,0.00,,CLR,0.00,VWS V14.01,2013-08-18 21:06:00,
2013-08-18 14:07:00,77.0,57.0,30.03,SW,233,3.0,3.0,50,0.00,,CLR,0.00,VWS V14.01,2013-08-18 21:07:00,
2013-08-18 14:09:00,76.8,56.2,30.03,WSW,240,5.0,9.0,49,0.00,,CLR,0.00,VWS V14.01,2013-08-18 21:09:00,
2013-08-18 14:11:00,76.8,56.2,30.03,SW,215,5.0,11.0,49,0.00,,CLR,0.00,VWS V14.01,2013-08-18 21:11:00,
2013-08-18 14:14:00,77.0,57.0,30.03,WSW,239,6.0,6.0,50,0.00,,CLR,0.00,VWS V14.01,2013-08-18 21:14:00,
2013-08-18 14:16:00,77.0,55.8,30.03,WSW,237,0.0,6.0,48,0.00,,CLR,0.00,VWS V14.01,2013-08-18 21:16:00,
2013-08-18 14:17:00,77.2,56.0,30.03,WSW,237,0.0,0.0,48,0.00,,CLR,0.00,VWS V14.01,2013-08-18 21:17:00,
2013-08-18 14:21:00,77.7,57.0,30.03,WNW,291,3.0,8.0,49,0.00,,CLR,0.00,VWS V14.01,2013-08-18 21:21:00,
2013-08-18 14:23:00,77.7,55.9,30.03,WSW,247,7.0,11.0,47,0.00,,CLR,0.00,VWS V14.01,2013-08-18 21:23:00,
2013-08-18 14:24:00,77.6,57.0,30.03,SW,220,8.0,11.0,49,0.00,,CLR,0.00,VWS V14.01,2013-08-18 21:24:00,
2013-08-18 14:26:00,77.4,56.8,30.03,SSW,213,1.0,11.0,49,0.00,,CLR,0.00,VWS V14.01,2013-08-18 21:26:00,
2013-08-18 14:27:00,77.4,56.8,30.03,SSW,213,1.0,2.0,49,0.00,,CLR,0.00,VWS V14.01,2013-08-18 21:27:00,
2013-08-18 14:28:00,77.6,57.5,30.03,SSW,213,0.0,2.0,50,0.00,,CLR,0.00,VWS V14.01,2013-08-18 21:28:00,
2013-08-18 14:30:00,77.7,57.0,30.03,SSW,205,4.0,4.0,49,0.00,,CLR,0.00,VWS V14.01,2013-08-18 21:30:00,
2013-08-18 14:33:00,77.9,57.2,30.03,South,191,0.0,2.0,49,0.00,,CLR,0.00,VWS V14.01,2013-08-18 21:33:00,
2013-08-18 14:35:00,78.1,56.8,30.03,SW,224,3.0,6.0,48,0.00,,CLR,0.00,VWS V14.01,2013-08-18 21:35:00,
2013-08-18 14:36:00,78.1,56.8,30.03,West,268,4.0,7.0,48,0.00,,CLR,0.00,VWS V14.01,2013-08-18 21:36:00,
2013-08-18 14:38:00,78.3,57.0,30.03,WSW,246,4.0,11.0,48,0.00,,CLR,0.00,VWS V14.01,2013-08-18 21:38:00,
2013-08-18 14:40:00,78.1,56.8,30.03,SSW,210,4.0,11.0,48,0.00,,CLR,0.00,VWS V14.01,2013-08-18 21:40:00,
2013-08-18 14:41:00,77.9,56.7,30.03,SW,227,8.0,11.0,48,0.00,,CLR,0.00,VWS V14.01,2013-08-18 21:41:00,
2013-08-18 14:42:00,77.7,57.0,30.03,NW,320,10.0,12.0,49,0.00,,CLR,0.00,VWS V14.01,2013-08-18 21:42:00,
2013-08-18 14:44:00,77.4,56.8,30.03,West,268,0.0,12.0,49,0.00,,CLR,0.00,VWS V14.01,2013-08-18 21:44:00,
2013-08-18 14:46:00,77.2,57.7,30.03,WSW,239,4.0,12.0,51,0.00,,CLR,0.00,VWS V14.01,2013-08-18 21:46:00,
2013-08-18 14:47:00,77.0,57.0,30.03,WNW,292,7.0,7.0,50,0.00,,CLR,0.00,VWS V14.01,2013-08-18 21:47:00,
2013-08-18 14:49:00,76.8,57.3,30.03,SSW,202,2.0,13.0,51,0.00,,CLR,0.00,VWS V14.01,2013-08-18 21:49:00,
2013-08-18 14:50:00,76.8,57.3,30.03,NW,308,4.0,13.0,51,0.00,,CLR,0.00,VWS V14.01,2013-08-18 21:50:00,
2013-08-18 14:54:00,77.2,57.1,30.03,WNW,301,3.0,10.0,50,0.00,,CLR,0.00,VWS V14.01,2013-08-18 21:54:00,
2013-08-18 14:55:00,77.2,57.1,30.03,SW,234,1.0,11.0,50,0.00,,CLR,0.00,VWS V14.01,2013-08-18 21:55:00,
2013-08-18 14:56:00,77.0,57.0,30.03,NNW,329,6.0,11.0,50,0.00,,CLR,0.00,VWS V14.01,2013-08-18 21:56:00,
2013-08-18 14:58:00,76.8,56.8,30.03,WSW,237,5.0,12.0,50,0.00,,CLR,0.00,VWS V14.01,2013-08-18 21:58:00,
2013-08-18 15:00:00,76.7,56.1,30.02,SSW,212,0.0,12.0,49,0.00,,CLR,0.00,VWS V14.01,2013-08-18 22:00:00,
2013-08-18 15:01:00,76.7,56.7,30.02,WNW,284,4.0,12.0,50,0.00,,CLR,0.00,VWS V14.01,2013-08-18 22:01:00,
2013-08-18 15:04:00,76.7,56.7,30.02,NW,312,7.0,12.0,50,0.00,,CLR,0.00,VWS V14.01,2013-08-18 22:04:00,
2013-08-18 15:05:00,76.7,56.7,30.02,West,275,6.0,12.0,50,0.00,,CLR,0.00,VWS V14.01,2013-08-18 22:05:00,
2013-08-18 15:06:00,76.7,56.7,30.02,WNW,291,7.0,12.0,50,0.00,,CLR,0.00,VWS V14.01,2013-08-18 22:06:00,
2013-08-18 15:07:00,76.7,56.7,30.02,SW,230,5.0,10.0,50,0.00,,CLR,0.00,VWS V14.01,2013-08-18 22:07:00,
2013-08-18 15:11:00,76.7,57.2,30.02,West,267,8.0,10.0,51,0.00,,CLR,0.00,VWS V14.01,2013-08-18 22:11:00,
2013-08-18 15:12:00,76.7,57.2,30.02,SW,216,2.0,8.0,51,0.00,,CLR,0.00,VWS V14.01,2013-08-18 22:12:00,
2013-08-18 15:14:00,76.8,57.3,30.02,West,267,6.0,8.0,51,0.00,,CLR,0.00,VWS V14.01,2013-08-18 22:14:00,
2013-08-18 15:17:00,76.8,56.8,30.02,SSW,199,6.0,14.0,50,0.00,,CLR,0.00,VWS V14.01,2013-08-18 22:17:00,
2013-08-18 15:18:00,76.7,56.7,30.02,WSW,258,5.0,14.0,50,0.00,,CLR,0.00,VWS V14.01,2013-08-18 22:18:00,
2013-08-18 15:19:00,76.5,57.0,30.02,SW,236,3.0,14.0,51,0.00,,CLR,0.00,VWS V14.01,2013-08-18 22:19:00,
2013-08-18 15:21:00,76.5,57.0,30.02,SW,234,5.0,5.0,51,0.00,,CLR,0.00,VWS V14.01,2013-08-18 22:21:00,
2013-08-18 15:22:00,76.5,57.6,30.02,WSW,254,2.0,6.0,52,0.00,,CLR,0.00,VWS V14.01,2013-08-18 22:22:00,
2013-08-18 15:23:00,76.7,57.8,30.02,NW,316,1.0,6.0,52,0.00,,CLR,0.00,VWS V14.01,2013-08-18 22:23:00,
2013-08-18 15:26:00,77.2,57.7,30.02,West,274,1.0,6.0,51,0.00,,CLR,0.00,VWS V14.01,2013-08-18 22:26:00,
2013-08-18 15:27:00,77.4,57.9,30.02,SW,227,2.0,5.0,51,0.00,,CLR,0.00,VWS V14.01,2013-08-18 22:27:00,
2013-08-18 15:30:00,77.6,57.5,30.01,South,171,0.0,5.0,50,0.00,,CLR,0.00,VWS V14.01,2013-08-18 22:30:00,
2013-08-18 15:31:00,77.4,57.3,30.01,WNW,285,1.0,2.0,50,0.00,,CLR,0.00,VWS V14.01,2013-08-18 22:31:00,
2013-08-18 15:32:00,77.4,57.3,30.01,WNW,285,0.0,2.0,50,0.00,,CLR,0.00,VWS V14.01,2013-08-18 22:32:00,
2013-08-18 15:33:00,77.4,57.3,30.01,NNW,329,6.0,6.0,50,0.00,,CLR,0.00,VWS V14.01,2013-08-18 22:33:00,
2013-08-18 15:36:00,77.2,57.1,30.01,South,188,7.0,10.0,50,0.00,,CLR,0.00,VWS V14.01,2013-08-18 22:36:00,
2013-08-18 15:38:00,77.0,57.0,30.01,WSW,256,3.0,10.0,50,0.00,,CLR,0.00,VWS V14.01,2013-08-18 22:38:00,
2013-08-18 15:39:00,76.8,56.8,30.01,SW,224,4.0,10.0,50,0.00,,CLR,0.00,VWS V14.01,2013-08-18 22:39:00,
2013-08-18 15:41:00,76.8,57.9,30.01,SSW,206,6.0,7.0,52,0.00,,CLR,0.00,VWS V14.01,2013-08-18 22:41:00,
2013-08-18 15:42:00,76.7,57.2,30.01,SSW,206,0.0,7.0,51,0.00,,CLR,0.00,VWS V14.01,2013-08-18 22:42:00,
2013-08-18 15:45:00,76.8,56.8,30.01,WSW,240,7.0,8.0,50,0.00,,CLR,0.00,VWS V14.01,2013-08-18 22:45:00,
2013-08-18 15:46:00,76.8,57.3,30.01,WNW,284,2.0,5.0,51,0.00,,CLR,0.00,VWS V14.01,2013-08-18 22:46:00,
2013-08-18 15:47:00,76.8,57.3,30.01,NNW,330,3.0,6.0,51,0.00,,CLR,0.00,VWS V14.01,2013-08-18 22:47:00,
2013-08-18 15:48:00,77.0,57.5,30.01,West,271,6.0,10.0,51,0.00,,CLR,0.00,VWS V14.01,2013-08-18 22:48:00,
2013-08-18 15:50:00,76.8,56.8,30.01,West,265,7.0,10.0,50,0.00,,CLR,0.00,VWS V14.01,2013-08-18 22:50:00,
2013-08-18 15:51:00,76.8,56.8,30.01,WSW,237,6.0,10.0,50,0.00,,CLR,0.00,VWS V14.01,2013-08-18 22:51:00,
2013-08-18 15:55:00,76.7,57.2,30.01,SSW,200,6.0,11.0,51,0.00,,CLR,0.00,VWS V14.01,2013-08-18 22:55:00,
2013-08-18 15:56:00,76.7,57.2,30.01,WSW,254,2.0,11.0,51,0.00,,CLR,0.00,VWS V14.01,2013-08-18 22:56:00,
2013-08-18 15:57:00,76.5,57.0,30.01,WSW,246,5.0,7.0,51,0.00,,CLR,0.00,VWS V14.01,2013-08-18 22:57:00,
2013-08-18 15:58:00,76.5,57.0,30.01,NW,306,0.0,7.0,51,0.00,,CLR,0.00,VWS V14.01,2013-08-18 22:58:00,
2013-08-18 16:00:00,76.5,57.0,30.02,West,281,0.0,10.0,51,0.00,,CLR,0.00,VWS V14.01,2013-08-18 23:00:00,
2013-08-18 16:02:00,76.5,56.5,30.02,West,278,7.0,7.0,50,0.00,,CLR,0.00,VWS V14.01,2013-08-18 23:02:00,
2013-08-18 16:04:00,76.5,56.5,30.02,WNW,285,3.0,9.0,50,0.00,,CLR,0.00,VWS V14.01,2013-08-18 23:04:00,